{"data":{"norad_id":57841,"intl_designator":"2023-141B","name":"STARLINK-30410","alt_names":[],"object_type":"PAYLOAD","status":"ACTIVE","operator":null,"country":"US","launch_date":"2023-09-12","launch_site_code":"AFWTR","launch_vehicle":null,"mission":null,"orbit_class":"UNKNOWN","rcs_meters":null,"size_class":null,"mass_kg":null,"dimensions":null,"purposes":["comms"],"wikipedia_slug":null,"has_3d_model":false,"image_url":null,"decayed_at":null,"tle_current":{"epoch":"2026-05-25T03:13:50.378304Z","epoch_age_seconds":57329,"freshness":"FRESH","line1":"1 57841U 23141B   26145.13461086  .00001381  00000+0  56260-4 0  9998","line2":"2 57841  53.1610 288.7391 0001219  83.7432 276.3709 15.31705107152036","mean_motion":15.31705107,"eccentricity":0.0001219,"inclination_deg":53.161,"raan_deg":288.7391,"arg_perigee_deg":83.7432,"mean_anomaly_deg":276.3709,"bstar":5.626e-5,"rev_number":15203,"period_min":94.012874503003,"perigee_km":469.88989531674,"apogee_km":471.55964781665,"semimajor_km":6848.8617715667,"source":"CELESTRAK","updated_at":"2026-05-25T13:38:18.413469Z"}}}